Find ONDOSAT-OWL-9

NORAD ID: 62395 Int'l Des: 2024-247 Owner: ONDO Country: MN operational
LEOCIRCULAR

当前视图

正在加载3D地球...

关于 ONDOSAT-OWL-9

正在加载描述...

即将过境

Passes for default location (London). Set your location on the main map for personalized predictions.

高度历史

Loading altitude history...

两行轨道根数

1 62395U 24247U 26146.07488845 .00029728 00000-0 59102-3 0 9995
2 62395 44.9963 20.6080 0006316 160.3263 199.7872 15.46462723 79970
Epoch: May 26, 2026 • Age: 12 hours

当前状态

高度 438.5 km
速度 7.65 km/s
星下点 -39.87°S, 164.31°E
发射日期 Dec 21, 2024
运行时间 1.4 years
类型 other

技术详情

分类 Payload
质量 0.25 kg
干质量 0.25 kg
总质量 0.25 kg
长度 0.05 m
直径 0.05 m
跨度 0.05 m
形状 Box
制造商 ONDO
平台类型 Cubesat 0.5U
阶段状态 In Orbit
所有者/国家 ONDO/MN

Most Searched